Overview Statistics Trail Chart Weather Telemetry Raw packets
 

This is the latest recevied weather packets stored in our database for station/object KC4JIR. If no packets are shown the sender has not sent any weather packets the latest 10 day(s).

<< 71 72 73 74 75 76 77 >>
Time Temp. Humidity Pressure Rain* Wind** Luminosity Snow
1788122226 33.33° C 65% 1015.8 hPa 0 mm - 162 W/m² -
1788121921 33.33° C 64% 1015.9 hPa 0 mm - 484 W/m² -
1788121621 33.33° C 65% 1015.9 hPa 0 mm - 551 W/m² -
1788121316 32.78° C 64% 1015.7 hPa 0 mm - 569 W/m² -
1788121015 33.33° C 64% 1015.8 hPa 0 mm - 309 W/m² -
1788120711 33.33° C 65% 1015.9 hPa 0 mm - 592 W/m² -
1788120406 32.78° C 65% 1016.1 hPa 0 mm - 580 W/m² -
1788120105 32.78° C 65% 1016 hPa 0 mm - 583 W/m² -
1788119801 32.78° C 66% 1016.1 hPa 0 mm - 607 W/m² -
1788119499 33.33° C 71% 1016.3 hPa 0 mm - 618 W/m² -
1788119197 32.78° C 69% 1016.5 hPa 0 mm - 621 W/m² -
1788118892 31.11° C 70% 1016.6 hPa 0 mm - 665 W/m² -
1788118587 31.11° C 72% 1016.4 hPa 0 mm - 114 W/m² -
1788118287 31.11° C 75% 1016.5 hPa 0 mm - 78 W/m² -
1788117983 31.67° C 73% 1016.7 hPa 0 mm - 98 W/m² -
1788117677 33.33° C 68% 1016.5 hPa 0 mm - 137 W/m² -
1788117372 32.78° C 68% 1016.4 hPa 0 mm - 725 W/m² -
1788117068 33.33° C 67% 1016.7 hPa 0 mm - 726 W/m² -
1788116763 32.78° C 76% 1016.8 hPa 0 mm - 695 W/m² -
1788116458 32.78° C 72% 1016.6 hPa 0 mm - 714 W/m² -
1788116151 32.22° C 71% 1016.8 hPa 0 mm - 766 W/m² -
1788115848 31.67° C 75% 1016.9 hPa 0 mm - 507 W/m² -
1788115546 31.11° C 74% 1016.8 hPa 0 mm - 167 W/m² -
1788115241 32.22° C 72% 1017 hPa 0 mm - 133 W/m² -
1788114936 32.78° C 69% 1017 hPa 0 mm - 263 W/m² -

* Rain latest hour (hover to see other rain measurements)
** Current wind speed in m/s (hover to see current wind gust speed)